Flag for U.S.A. Weather past 2 weeks in St. Paul, Minnesota, U.S.A.

Now
63 °F

Sunny.


Feels Like: 63 °F
Forecast: 62 / 80 °F
Wind: 5 mph from Southeast

Location: St. Paul Downtown Holman Field

Current Time: Jul 24, 2014 at 7:21:19 AM

Latest Report: Jul 24, 2014 at 6:53 AM


Visibility: 10 mi

Pressure: 30.14 "Hg

Humidity: 87%

Dew point: 59 °F

Location of St. PaulLocation

Historic Weather in St. Paul — Graph

°F

St. Paul temperature yesterday

Maximum temperature yesterday: 80 °F (at 1:53 PM)
Minimum temperature yesterday: 61 °F (at 5:53 AM)
Average temperature yesterday: 72 °F

Past Weeks' High & Low Weather Summary

 TemperatureHumidityPressure
High89 °F (Jul 21, 3:53 PM)97% (Jul 11, 8:53 AM)30.24 "Hg (Jul 11, 8:53 AM)
Low53 °F (Jul 16, 5:53 AM)37% (Jul 16, 2:53 PM)29.77 "Hg (Jul 22, 3:53 AM)
Average70 °F69%29.97 "Hg
* Reported Jul 9 7:53 AM — Jul 24 5:53 AM, St. Paul, Weather by CustomWeather, © 2014

Note: Actual official high and low records may vary slightly from our data, if they occured in-between our weather recording intervals... More about our weather records

Advertising

St. Paul weather history for previous 24 hours

 ConditionsComfort  
Time TempWeatherWind HumidityBarometerVisibility
5:53 AM
Jul 24
62 °FClear.3 mph83%30.15 "Hg10 mi
4:53 AM62 °FClear.No wind83%30.15 "Hg10 mi
3:53 AM63 °FClear.3 mph84%30.15 "Hg10 mi
2:53 AM64 °FClear.No wind84%30.15 "Hg10 mi
1:53 AM65 °FClear.No wind76%30.16 "Hg10 mi
12:53 AM66 °FClear.No wind68%30.15 "Hg10 mi
11:53 PM
Jul 23
68 °FClear.3 mph63%30.14 "Hg10 mi
10:53 PM69 °FClear.3 mph61%30.14 "Hg10 mi
9:53 PM70 °FClear.7 mph57%30.14 "Hg10 mi
8:53 PM73 °FSunny.6 mph48%30.14 "Hg10 mi
7:53 PM76 °FSunny.7 mph43%30.15 "Hg10 mi
6:53 PM78 °FSunny.8 mph37%30.15 "Hg10 mi
5:53 PM79 °FSunny.12 mph41%30.16 "Hg10 mi
4:53 PM80 °FSunny.5 mph38%30.17 "Hg10 mi
3:53 PM80 °FSunny.N/A39%30.18 "Hg10 mi
2:53 PM78 °FWarm.10 mph40%30.20 "Hg10 mi
1:53 PM80 °FScattered clouds.5 mph41%30.21 "Hg10 mi
12:53 PM79 °FWarm.3 mph41%30.21 "Hg10 mi
12:00 PM78 °FBroken clouds.5 mph45%30.23 "Hg10 mi
10:53 AM76 °FSunny.6 mph47%30.22 "Hg10 mi
9:53 AM74 °FSunny.No wind53%30.23 "Hg10 mi
8:53 AM71 °FMild.No wind61%30.24 "Hg10 mi
7:53 AM67 °FMild.5 mph73%30.24 "Hg10 mi
Weather by CustomWeather, © 2014

See weather overviewHow to use our weather pages